#timestamp,LO_Frequency,Hit,StdDev 
1527109215.7,286047000.4,N
1527109235.5,286046999.7,N
1527109255.4,286047000.3,N
1527109275.2,286047002.7,N
1527109295.0,286046999.9,N
1527109295.9,286046999.9,N
1527109315.8,286047002.2,N
1527109335.6,286047002.3,N
1527109355.5,286047001.7,N
1527109375.3,286047004.4,Y
1527109395.1,286047001.9,P
1527109415.9,286047001.8,P
1527109435.7,286047002.5,P
1527109455.5,286046998.2,Y
1527109475.4,286046995.4,P
1527109495.2,286046997.9,N
1527109515.1,286046999.3,N
1527109516.0,286046999.3,N
1527109535.8,286047001.1,N
1527109555.6,286047002.7,N
1527109575.5,286047002.4,N
1527109595.3,286046998.6,N
1527109615.2,286046998.3,N
1527109635.9,286047000.5,N
1527109655.7,286046999.5,N
1527109675.6,286046999.6,N
1527109695.4,286046995.2,N
1527109715.2,286046994.9,N
1527109735.1,286046997.7,N
1527109736.0,286046997.7,N
1527109755.8,286046997.8,N
1527109775.7,286046997.6,N
1527109795.5,286046995.4,N
1527109815.3,286046996.7,N
1527109835.2,286046999.6,N
1527109855.0,286046998.4,N
1527109855.9,286046998.4,N
1527109875.8,286046999.1,N
1527109895.6,286046998.7,N
1527109915.4,286046997.2,N
1527109935.3,286046997.5,N
1527109955.1,286046995.7,N
1527109975.8,286046995.8,N
1527109995.7,286046997.0,N
1527110015.5,286046997.2,N
1527110035.4,286046996.6,N
1527110055.2,286046999.1,N
1527110075.0,286046998.7,N
1527110075.9,286046998.7,N
1527110095.8,286046998.4,N
1527110115.6,286046998.2,N
1527110135.4,286046999.3,N
1527110155.3,286046999.4,N
1527110175.1,286046999.6,N
1527110195.9,286046999.3,N
1527110215.7,286046997.1,N
1527110235.5,286046996.2,N
1527110255.4,286046995.5,Y
1527110275.2,286046998.5,P
1527110295.0,286047001.0,N
1527110295.9,286047001.0,N
1527110315.8,286047000.9,N
1527110335.6,286047000.2,N
1527110355.5,286046999.8,N
1527110375.3,286047000.9,N
1527110395.1,286047000.2,N
1527110415.9,286047000.2,N
1527110435.7,286047001.1,N
1527110455.6,286046998.9,N
1527110475.4,286047000.8,N
1527110495.2,286046999.2,N
1527110515.1,286046999.6,N
1527110516.0,286046999.6,N
1527110535.8,286047000.7,N
1527110555.6,286047001.1,N
1527110575.5,286046998.5,N
1527110595.3,286047000.5,N
1527110615.2,286046999.6,N
1527110635.0,286046999.4,N
1527110635.9,286046999.4,N
1527110655.8,286046998.3,N
1527110675.6,286047000.9,N
1527110695.4,286047002.8,N
1527110715.3,286047001.7,N
1527110735.1,286047000.5,N
1527110755.8,286046999.1,N
1527110775.7,286046996.6,Y
1527110795.5,286046999.4,P
1527110815.4,286046998.0,P
1527110835.2,286046995.7,P
1527110855.0,286046995.8,N
1527110855.9,286046995.8,N
1527110875.8,286046995.7,N
1527110895.6,286046997.5,N
1527110915.4,286046995.1,N
1527110935.3,286046995.7,N
1527110955.1,286046995.0,Y
1527110975.9,286047000.0,P
1527110995.7,286046998.7,N
1527111015.5,286047001.2,N
1527111035.4,286047002.3,N
1527111055.2,286047001.4,N
1527111075.1,286047001.4,N
1527111076.0,286047001.4,N
1527111095.8,286047004.0,N
1527111115.6,286047003.4,N
1527111135.5,286047003.8,N
1527111155.3,286047004.3,N
1527111175.1,286047002.1,N
1527111195.9,286047004.1,N
1527111215.7,286047002.1,N
1527111235.6,286047002.4,N
1527111255.4,286047000.1,N
1527111275.2,286046999.8,N
1527111295.1,286046999.9,N
1527111296.0,286046999.9,N
1527111315.8,286047000.6,N
1527111335.6,286046999.5,N
1527111355.5,286046997.9,N
1527111375.3,286046995.4,N
1527111395.2,286046995.0,N
1527111415.9,286046997.9,N
1527111435.7,286046998.6,N
1527111455.6,286046996.9,N
1527111475.4,286046999.3,N
1527111495.4,286046998.9,N
1527111515.3,286046999.5,N
1527111535.1,286046999.3,N
1527111536.0,286046999.3,N
1527111555.8,286047000.8,N
1527111575.7,286047001.1,N
1527111595.5,286046998.5,N
1527111615.3,286046995.7,N
1527111635.2,286046995.6,N
1527111655.0,286046996.7,N
1527111655.9,286046996.7,N
1527111675.8,286046999.6,N
1527111695.6,286046996.6,N
1527111715.4,286046999.0,N
1527111735.3,286046998.8,N
1527111755.1,286046999.3,N
1527111775.9,286046997.5,N
1527111795.7,286046996.3,N
1527111815.5,286046994.0,Y
1527111835.4,286046995.3,P
1527111855.2,286046996.6,N
1527111875.0,286046997.9,N
1527111876.0,286046997.9,N
1527111895.8,286046997.1,N
1527111915.6,286046997.1,N
1527111935.5,286046997.9,N
1527111955.3,286046997.6,N
1527111975.1,286046997.2,Y
1527111995.9,286047000.3,P
1527112015.7,286047000.2,N
1527112035.6,286046999.9,N
1527112055.4,286047002.4,N
1527112075.2,286047002.7,N
1527112095.1,286046998.1,N
1527112096.0,286046998.1,N
1527112115.8,286046999.9,N
1527112135.6,286047000.9,N
1527112155.5,286047000.7,N
1527112175.3,286047000.5,N
1527112195.2,286047000.7,N
1527112215.9,286046998.7,N
1527112235.7,286046998.7,N
1527112255.6,286046998.3,N
1527112275.4,286046998.6,N
1527112295.2,286047000.4,N
1527112315.1,286047000.8,N
1527112316.0,286047000.8,N
1527112335.8,286046998.7,N
1527112355.7,286046998.5,N
1527112375.5,286047001.2,N
1527112395.3,286047000.8,N
1527112415.2,286046999.9,N
1527112435.0,286047000.5,N
1527112435.9,286047000.5,N
1527112455.8,286047001.8,N
1527112475.6,286047003.5,N
1527112495.4,286047003.6,N
1527112515.3,286047003.9,N
1527112535.1,286047001.3,N
1527112555.8,286047003.9,N
1527112575.7,286047001.3,N
1527112595.5,286047003.8,N
1527112615.4,286047005.5,Y
1527112635.2,286047004.0,P
1527112655.0,286047005.5,P
1527112655.9,286047005.5,N
1527112675.8,286047006.0,Y
1527112695.6,286047002.3,P
1527112715.5,286047000.7,N
1527112735.3,286046998.3,N
1527112755.1,286046999.3,N
1527112775.9,286046998.2,N
1527112795.7,286047000.7,N
